sat.trackr.live / text

‹ back to catalog

STARLINK-4691

NORAD 53588 · 2022-104A

PAYLOAD ACTIVE UNKNOWN

§ Identity

Operator
Country
US
Launch date
2022-08-28
Launch site
AFETR
Launch vehicle
Mass (kg)
RCS (m²)

Purposes: comms

External: N2YO · Heavens-Above · Gunter

§ Orbital elements

Epoch: 2026-05-25T00:19:36.679872Z

Period
95.44 min
Inclination
53.2152°
Eccentricity
0.0001297
Mean motion
15.08837008 rev/d
Perigee alt
538.9 km
Apogee alt
540.6 km
Semi-major
6,917.9 km
B*
-2.3903e-5
RAAN
261.7370°
Arg perigee
87.5044°
Mean anomaly
272.6097°
Rev number
20,761

§ Raw data

STARLINK-46911 53588U 22104A   26145.01361898 -.00000668  00000+0 -23903-4 0  99942 53588  53.2152 261.7370 0001297  87.5044 272.6097 15.08837008207611

JSON: /api/v1/satellites/53588 · /tle

For live sub-satellite position, see the globe view (requires WebGL).

§ Visibility from observer

Set your observer location to see the next 7 days of passes ≥ 10°. The values pass through the URL so the page stays shareable.

No JS? Fill the form by hand. The geolocation button needs JavaScript.